Weather in Portland

United States     43°39′26″N   70°16′09″W
temp.,
°C
wind,
m/s
gust,
m/s
humid.,
%
clouds,
%
prec.,
mm/h
press.,
hPa
HPBL,
m
26 june, sun
sun2623:00+22wsw2664100 0.0 1018152
02:00+20w256879 0.0 1018113
05:00+19nnw228098 0.0 101858
08:00+24n22595 0.0 1019393
11:00+30sse2342100 0.0 10181203
14:00+30se564340 0.0 10161074
17:00+28sse59450 0.0 1015676
20:00+23s51562100 0.0 1015606
27 june, mon
mon2723:00+22ssw4137222 0.0 1015490
02:00+24sw4125381 0.0 1013606
05:00+20ssw41263100 0.0 1012446
08:00+22ssw51362100 0.0 1012615
11:00+19ssw41393100 1.4 1012774
14:00+19ssw31199100 7.6 1011585
17:00+21sw3789100 1.1 1011659
20:00+20ssw2593100 1.1 1012173
28 june, tue
tue2823:00+17wnw3118143 0.1 1013267
02:00+14nnw24835 0.1 1016106
05:00+12nw11830 0.0 101716
08:00+18nw24600 0.0 1019543
11:00+23wnw124272 0.0 10202127
14:00+20s2354100 0.0 1021613
17:00+23ssw344233 0.0 10211761
20:00+18ssw37600 0.0 1022201
29 june, wed
wed2923:00+14w22710 0.0 102341
02:00+13sw22760 0.0 102443
05:00+13w22824 0.0 102330
08:00+19ssw24565 0.0 1024364
11:00+24sse464250 0.0 10221344
14:00+24sse56468 0.0 10211095
17:00+22sse585399 0.0 1019681
20:00+19ssw157236 0.0 1020187
30 june, thu
thu3023:00+16n2491100 0.0 101994
02:00+15nnw2596100 0.3 1020132
05:00+13nnw25970 0.1 102098
08:00+18n257559 0.1 1021322
11:00+24n244282 0.0 10211988
14:00+26s343565 0.0 10192224
17:00+25ssw334217 0.0 10181313
20:00+20s376483 0.0 1019285